sat.trackr.live / text

‹ back to catalog

STARLINK-35876

NORAD 67180 · 2025-303T

PAYLOAD ACTIVE UNKNOWN

§ Identity

Operator
Country
US
Launch date
2025-12-17
Launch site
AFETR
Launch vehicle
Mass (kg)
RCS (m²)

Purposes: comms

External: N2YO · Heavens-Above · Gunter

§ Orbital elements

Epoch: 2026-05-24T23:30:18.948672Z

Period
94.27 min
Inclination
43.0042°
Eccentricity
0.0001583
Mean motion
15.27595986 rev/d
Perigee alt
481.9 km
Apogee alt
484.1 km
Semi-major
6,861.1 km
B*
5.6629e-4
RAAN
239.7874°
Arg perigee
281.5377°
Mean anomaly
78.5297°
Rev number
2,440

§ Raw data

STARLINK-358761 67180U 25303T   26144.97938598  .00015361  00000+0  56629-3 0  99962 67180  43.0042 239.7874 0001583 281.5377  78.5297 15.27595986 24402

JSON: /api/v1/satellites/67180 · /tle

For live sub-satellite position, see the globe view (requires WebGL).

§ Visibility from observer

Set your observer location to see the next 7 days of passes ≥ 10°. The values pass through the URL so the page stays shareable.

No JS? Fill the form by hand. The geolocation button needs JavaScript.